BULGARIASAT-1

Last updated on Jan. 23, 2021, 7:16 a.m. UTC

1 42801U 17038A   21022.85677910  .00000023  00000-0  00000-0 0  9999
2 42801   0.0142  53.3744 0002628 248.2472 131.1054  1.00270786 13052
UTC
Height (km)
Latitude
Longitude
Inclination
Orbital Period
UTC large
Height (km)
Speed (km/s)
/
Latitude / Longitude
Inclination (degrees)
Orbital Period (minutes)
Azimuth
Elevation
Range (km)
Doppler Factor
iOS Compass Heading
iOS Angle

Next 30 passes for location: Hong Kong

Rise time Rise Azimuth (degrees) Set time Set Azimuth (degrees) Duration Max altitude (degrees)

No matching passes for this satellites